Погода в Пуктыше

Россия / Курганская область     55°28′22″N   62°42′10″E
темп.,
°C
ветер,
м/с
пор.,
м/с
влажн.,
%
обл.,
%
осадки,
мм/ч
давл.,
гПа
погр.,
м
11 мая, вт
вт1123:00+11вюв334739 0.0 102630
02:00+10вюв23465 0.0 102618
05:00+8вюв22505 0.0 102710
08:00+14юв23400 0.0 1028264
11:00+18ююв22294 0.0 10281360
14:00+21ю1124100 0.0 10281611
17:00+21юз2223100 0.0 10281755
20:00+18ююз1133100 0.0 102811
12 мая, ср
ср1223:00+15зюз223479 0.0 102811
02:00+13з22412 0.0 102812
05:00+11з33445 0.0 102828
08:00+17зсз354011 0.0 1028271
11:00+22сз4440100 0.0 10281056
14:00+24сз563831 0.0 10272280
17:00+25ссз463587 0.0 10262322
20:00+20ссв3639100 0.0 1026100
13 мая, чт
чт1323:00+16св11466 0.0 102711
02:00+15зсз22495 0.0 102711
05:00+13сз335394 0.0 102728
08:00+18сз454519 0.0 1027292
11:00+23ссз563812 0.0 10261495
14:00+25ссз56295 0.0 10252035
17:00+26ссз56315 0.0 10252264
20:00+22ссз33465 0.0 102528
14 мая, пт
пт1423:00+17св34565 0.0 102659
02:00+16в33645 0.0 102729
05:00+14юв227210 0.0 102811
08:00+20ююв225430 0.0 1028273
11:00+25ю33404 0.0 10281286
14:00+27юз34313 0.0 10262519
17:00+28юз352715 0.0 10252827
20:00+24ююз3442100 0.0 102363
15 мая, сб
сб1523:00+20з33470 0.0 102438
02:00+18зсз22478 0.0 102311
05:00+17зсз335551 0.0 102444
08:00+22сз344876 0.0 1024257
11:00+26зсз453237 0.0 10231287
14:00+28зсз56260 0.0 10222593
17:00+28зсз452922 0.0 10202680
20:00